Showing default

NOAA 16, 26536

Orbit data source: Space-Track

NOAA 16, 26536 is a payload satellite owned by NOAA (US) in SSO that was launched on Thu, 21 Sep 2000 UTC via a TITAN II SLV launch vehicle from the Air Force Western Test Range (AFWTR). Payloads include a variety of satellites, spacecraft, and rockets equipped with specific instruments for various scientific and technological missions. These include communications satellites like Starlink; space stations such as the ISS; scientific satellites like the Hubble; Earth observation satellites from companies like Planet Labs, Umbra, and HawkEye 360; GPS; miniature CubeSats for education and research; and military/defense satellites.

Loading next visibility...
NOAA 16 details
Identifier
26536, 2000-055A
Orbit
SSO
Last TLE update7 hours ago
Origin
Flag of USNOAA (US)
ManufacturerLM/EW
MissionNon-operational Civil Weather
Bus & MotorATN, Unknown motor
Mass2,231 kg wet, 1,403 kg dry
Launch date (UTC)
2000-09-21 (24 years ago)
Launch vehicle
TITAN II SLV
Launch site
Air Force Western Test Range (AFWTR)
Object type
Payload
Rocket body
Debris
Shape & HBRBox + 1 Pan, 7 m
Radar Cross Section11.218 m², Large (>1 m²)

Expand to show TLE details & history

TLE from 7 hours ago
0 NOAA 16
1 26536U 00055A   25025.53860380  .00000286  00000-0  17302-3 0  9991
2 26536  98.5061  60.6818 0009670 323.3671  36.6840 14.13743558551996
Epoch: 2025-01-25T12:55Z
Definitive object data (Epoch: 2025-01-25T12:55:35.368Z)
Latitude-0.00007°
Longitude101.69847°
Altitude843.901 km
Speed7.434 km/s
True Right ascension04h 02m 43s
True Declination0° 00' 00"
Sunlit
Object was in daylight at TLE epoch
Visualization TLE readout
Latitude30.68521°
Longitude96.90881°
Altitude847.883 km
Speed7.433 km/s
Apparent Right ascension06h 04m 33s
Apparent Declination-2° 44' 14"
Sunlit
Object is in daylight
Visualization observer readout
Local Sidereal Time21:12:59
Azimuth61.364° ENE
Elevation-33.508°
Doppler factor1
Orbital elements
Apogee altitude850.73 km
Perigee altitude836.763 km
Semi-major axis7,221.884 km
Eccentricity0.000967
Inclination98.5061°
RAAN60.6818°
Arg. of periapsis323.3671°
True anomaly36.75026°
Mean anomaly36.684°
Eccentric anomaly36.71712°
Mean motion3.53645 °/min
BSTAR0.00017302
Orbital period101.8 mins
Loading maneuver chart data...
Loading historical data...
Loading historical data...
Loading historical data...
Loading historical data...
Loading historical data...
Loading historical data...
Loading historical data...

NOAA 16 Visibility forecast

Observer location: undefined°, undefined

Span
Click to sort rows by Start time (UTC) header in descending order
Start Az.
Max El. time (UTC)
Max El. Az.
Max El.
End time (UTC)
End Az.
7 mins2025-01-26 00:57:58.977Z109.809° ESE2025-01-26 01:01:58.977Z60.206° ENE20.121°2025-01-26 01:04:58.977Z22.395° NNE
9 mins2025-01-26 02:37:58.977Z189.557° SSW2025-01-26 02:41:58.977Z259.655° W37.744°2025-01-26 02:46:58.977Z335.04° NNW
9 mins2025-01-26 14:59:58.977Z17.953° NNE2025-01-26 15:03:58.977Z115.369° SE44.355°2025-01-26 15:08:58.977Z189.35° SSW
4 mins2025-01-26 16:41:58.977Z321.628° NNW2025-01-26 16:43:58.977Z297.957° NW14.246°2025-01-26 16:45:58.977Z274.815° WNW
|